[[{"header":{"parameterUnit":"m.s-1","parameterCategory":2,"la1":30.2991,"la2":30.254,"lo1":-89.0895,"lo2":-89.0444,"dx":0.0017,"dy":0.0017,"nx":28,"ny":28,"refTime":"2022-12-23T15:00:00:Z","depth":"0","parameterNumber":2,"parameterNumberName":"U-component_of_CURRENTS"},"data":[0,0,0,0,0,0,0,0,0,0,0,0,0,0,0,0,0,0,0,0,0,0,0,0,0,0,0,0,0,0,0,0,0,0,0,0,0,0,0,0,0,0,0,0,0,0,0,0,0,0,0,0,0,0,0,0,0,0,0.3301,0.3301,0,0.336,0.336,0.3361,0.3368,0.3368,0.3368,0.3368,0.3372,0.3372,0.3373,0,0,0,0,0,0,0,0,0,0,0,0,0,0.3189,0.3191,0.33,0.3302,0.3303,0.336,0.336,0.3361,0.3368,0.3368,0.3368,0.3368,0.3372,0.3372,0.3373,0,0,0,0,0,0,0,0,0,0,0,0,0,0.3238,0.3191,0.33,0.3316,0.3319,0.336,0.336,0.3361,0.3368,0.3368,0.3368,0.3367,0.3372,0.3372,0.3373,0.3382,0,0,0.3374,0.3374,0,0,0,0,0,0,0,0,0.3235,0.3241,0.3313,0.3315,0.3318,0.336,0.3323,0.3367,0.3368,0.3345,0.3368,0.3367,0.3366,0.3367,0.3374,0.3382,0.3382,0.3374,0.3374,0.3375,0.3375,0,0,0,0,0,0,0,0.3232,0.3239,0.332,0.3314,0.3317,0.3319,0.3325,0.3331,0.3352,0.3347,0.3349,0.3362,0.3366,0.3373,0.3374,0.3382,0.3374,0.3375,0.3375,0.3375,0.3425,0.3426,0,0,0,0,0,0,0.3233,0.3236,0.3318,0.3322,0.328,0.3322,0.3329,0.3343,0.3353,0.3356,0.3362,0.3362,0.3373,0.3373,0.3374,0.3408,0.3375,0.3375,0.3375,0.3424,0.3425,0.3426,0,0,0,0,0,0,0.3231,0.324,0.3316,0.3283,0.3294,0.3325,0.3341,0.3345,0.3357,0.3366,0.3367,0.3372,0.3372,0.3373,0.3391,0.3407,0.3375,0.3376,0.3423,0.3424,0.3426,0.3461,0,0,0,0,0,0,0.3227,0.3239,0.3245,0.3284,0.3296,0.3349,0.3342,0.3346,0.3368,0.3368,0.3375,0.3375,0.3372,0.339,0.3391,0.3407,0.3376,0.3421,0.3423,0.3425,0.3459,0.3464,0.3468,0,0,0,0,0,0.3223,0.3237,0.3245,0.3255,0.3305,0.3351,0.3357,0.3374,0.3369,0.3382,0.3386,0.3375,0.3403,0.3391,0.3392,0.3409,0.342,0.3423,0.3425,0.3456,0.3463,0.3468,0,0,0,0,0,0,0.3183,0.3241,0.325,0.3278,0.3316,0.3354,0.337,0.3378,0.3393,0.3391,0.3388,0.3389,0.3414,0.3407,0.3394,0.343,0.341,0.3413,0.3433,0.3439,0.3444,0.3456,0.3376,0,0,0,0,0,0.3181,0.3215,0.326,0.3285,0.3305,0.3337,0.3355,0.337,0.3392,0.3398,0.3402,0.3408,0.3425,0.3427,0.344,0.3455,0.3473,0.3467,0.3472,0.3476,0.3487,0.3531,0.3541,0.3434,0.3434,0.3434,0,0,0.3169,0.321,0.3224,0.328,0.331,0.3339,0.3346,0.3384,0.3403,0.3396,0.3416,0.3428,0.3435,0.3459,0.3468,0.3453,0.3518,0.3479,0.3482,0.3491,0.3535,0.3545,0.3555,0.3436,0.3435,0.3435,0,0,0.317,0.3205,0.3229,0.3265,0.332,0.3347,0.3359,0.34,0.3415,0.3439,0.3445,0.3469,0.3478,0.3496,0.3503,0.354,0.3546,0.3541,0.3568,0.361,0.3619,0.3628,0.3672,0.3684,0.3536,0.3536,0.3536,0,0.3149,0.3195,0.3242,0.3275,0.3308,0.335,0.3378,0.3402,0.3439,0.3462,0.3449,0.3499,0.3499,0.3544,0.3556,0.3552,0.3579,0.3543,0.3617,0.3625,0.3633,0.3677,0.369,0.3538,0.3538,0.3538,0.3538,0,0.3167,0.3204,0.3227,0.3286,0.3322,0.3363,0.3408,0.3441,0.3461,0.3485,0.3536,0.3546,0.3579,0.3581,0.3577,0.3637,0.3641,0.3623,0.3602,0.3647,0.369,0.3702,0.3541,0.354,0.354,0.3539,0,0,0.3117,0.3219,0.3223,0.3249,0.3337,0.3359,0.342,0.3483,0.3517,0.3549,0.3596,0.3625,0.3643,0.3653,0.3659,0.3688,0.3763,0.368,0.3681,0.3724,0.3869,0.3877,0.3891,0.3761,0.3763,0.3765,0.388,0,0.3116,0.317,0.3233,0.3276,0.3307,0.3384,0.3428,0.3487,0.3545,0.3598,0.3636,0.3675,0.3666,0.3685,0.3721,0.3762,0.3797,0.3734,0.382,0.3823,0.3824,0.3906,0.3848,0.3946,0.3892,0.3894,0.3896,0,0.3107,0.3149,0.3196,0.3275,0.3295,0.3327,0.3424,0.3472,0.3576,0.3617,0.369,0.3728,0.3803,0.3768,0.3877,0.3841,0.3862,0.388,0.3884,0.3889,0.3854,0.3892,0.3971,0.3926,0.3915,0.3914,0.3912,0,0.3034,0.3117,0.3154,0.3181,0.3277,0.3314,0.3367,0.3474,0.3547,0.364,0.3712,0.3789,0.3855,0.3896,0.3967,0.3926,0.4082,0.4023,0.4049,0.4049,0.4016,0.401,0.4061,0.4087,0.4087,0.4087,0.4086,0,0.3011,0.3029,0.3117,0.3129,0.317,0.3251,0.3322,0.3392,0.3531,0.3614,0.3714,0.381,0.3894,0.4004,0.4014,0.4107,0.4129,0.4085,0.4091,0.4027,0.4021,0.3991,0.3948,0.4091,0.409,0.4089,0.4088,0,0.293,0.2992,0.3028,0.3114,0.314,0.3164,0.3308,0.3369,0.3501,0.3628,0.367,0.3871,0.4009,0.4103,0.4196,0.4192,0.4156,0.4256,0.4184,0.4179,0.4124,0.4084,0.395,0.382,0.4295,0.4296,0.4297,0,0.2898,0.291,0.2991,0.3014,0.3057,0.3119,0.3176,0.3327,0.3417,0.3657,0.3719,0.393,0.4058,0.4252,0.4295,0.436,0.4208,0.4308,0.4204,0.4148,0.4108,0.3892,0.3774,0.4176,0.4176,0.4176,0.4176,0,0.2829,0.2861,0.289,0.2941,0.2992,0.3052,0.3149,0.3229,0.3408,0.3545,0.3734,0.3869,0.4119,0.4206,0.4334,0.4347,0.4143,0.4305,0.4267,0.4051,0.3799,0.3668,0.4075,0.4175,0.4175,0.4175,0.4175,0.4175,0.2769,0.2776,0.2817,0.2861,0.2912,0.2958,0.2974,0.3108,0.3238,0.3411,0.3625,0.3794,0.4066,0.4266,0.4245,0.426,0.4138,0.4181,0.4151,0.3946,0.3773,0.4186,0.4274,0.4275,0.4275,0.4276,0.4276,0,0.2685,0.2705,0.2737,0.2775,0.2784,0.2845,0.293,0.2939,0.3027,0.3277,0.3433,0.375,0.3903,0.4072,0.4247,0.4159,0.3892,0.4063,0.3762,0.3659,0.4086,0.4038,0.4054,0.4054,0.4054,0.4054,0.4054,0.4054,0.2639,0.2627,0.2651,0.2629,0.2652,0.2617,0.2629,0.2673,0.2821,0.3028,0.324,0.3465,0.3909,0.4208,0.4228,0.4111,0.3777,0.3644,0.3544,0.3917,0.3924,0.3931,0.3877,0.3859,0.3859,0.2981,0.2976,0.2971]},{"header":{"parameterUnit":"m.s-1","parameterCategory":2,"la1":30.2991,"la2":30.254,"lo1":-89.0895,"lo2":-89.0444,"dx":0.0017,"dy":0.0017,"nx":28,"ny":28,"refTime":"2022-12-23T15:00:00:Z","depth":"0","parameterNumber":3,"parameterNumberName":"V-component_of_CURRENTS"},"data":[0,0,0,0,0,0,0,0,0,0,0,0,0,0,0,0,0,0,0,0,0,0,0,0,0,0,0,0,0,0,0,0,0,0,0,0,0,0,0,0,0,0,0,0,0,0,0,0,0,0,0,0,0,0,0,0,0,0,-0.0189,-0.019,0,-0.0239,-0.024,-0.0241,-0.0284,-0.0284,-0.0284,-0.0284,-0.0371,-0.0373,-0.0375,0,0,0,0,0,0,0,0,0,0,0,0,0,-0.0189,-0.0189,-0.0189,-0.019,-0.019,-0.0239,-0.024,-0.0241,-0.0283,-0.0284,-0.0284,-0.0285,-0.037,-0.0372,-0.0375,0,0,0,0,0,0,0,0,0,0,0,0,0,-0.0211,-0.0189,-0.0189,-0.0216,-0.0219,-0.0239,-0.024,-0.0241,-0.0283,-0.0284,-0.0284,-0.0285,-0.0369,-0.0372,-0.0375,-0.0384,0,0,-0.0384,-0.0386,0,0,0,0,0,0,0,0,-0.0209,-0.0211,-0.0212,-0.0214,-0.0217,-0.0254,-0.0272,-0.029,-0.0283,-0.0261,-0.0284,-0.0285,-0.0334,-0.034,-0.035,-0.0388,-0.0392,-0.0385,-0.0386,-0.0388,-0.0388,0,0,0,0,0,0,0,-0.0208,-0.0209,-0.0211,-0.0212,-0.0215,-0.0246,-0.0249,-0.0276,-0.0296,-0.0263,-0.0265,-0.0268,-0.0336,-0.0347,-0.0352,-0.0393,-0.0384,-0.0387,-0.0389,-0.039,-0.0442,-0.0442,0,0,0,0,0,0,-0.0194,-0.0207,-0.0209,-0.0212,-0.0213,-0.0245,-0.0249,-0.0243,-0.0295,-0.0302,-0.0268,-0.027,-0.0341,-0.0349,-0.0355,-0.035,-0.0388,-0.039,-0.0392,-0.0443,-0.0442,-0.0442,0,0,0,0,0,0,-0.0194,-0.0194,-0.0207,-0.021,-0.0214,-0.0244,-0.0238,-0.0244,-0.0252,-0.0298,-0.0307,-0.0268,-0.0342,-0.0351,-0.0369,-0.0355,-0.0392,-0.0394,-0.0443,-0.0442,-0.0442,-0.0353,0,0,0,0,0,0,-0.0194,-0.0193,-0.0186,-0.0209,-0.0213,-0.0205,-0.0237,-0.0245,-0.0252,-0.0255,-0.0301,-0.031,-0.0343,-0.0364,-0.0372,-0.036,-0.0397,-0.0444,-0.0443,-0.0442,-0.0356,-0.0349,-0.0343,0,0,0,0,0,-0.0193,-0.0167,-0.0185,-0.0185,-0.0201,-0.0204,-0.0208,-0.0234,-0.0251,-0.0245,-0.0278,-0.0309,-0.0365,-0.0366,-0.0375,-0.0364,-0.0444,-0.0443,-0.0442,-0.0359,-0.035,-0.0343,0,0,0,0,0,0,-0.0156,-0.017,-0.0189,-0.0168,-0.0183,-0.021,-0.0204,-0.0226,-0.0247,-0.0252,-0.0301,-0.0311,-0.0324,-0.0356,-0.0356,-0.0378,-0.0411,-0.0412,-0.0345,-0.0337,-0.033,-0.0306,-0.0399,0,0,0,0,0,-0.0146,-0.0134,-0.0157,-0.014,-0.0145,-0.0177,-0.0183,-0.0199,-0.0221,-0.0231,-0.0265,-0.0301,-0.0328,-0.0341,-0.0371,-0.0379,-0.0415,-0.038,-0.0373,-0.0367,-0.0354,-0.0401,-0.0397,-0.0439,-0.0439,-0.0439,0,0,-0.0126,-0.0133,-0.0126,-0.0133,-0.0148,-0.0137,-0.0181,-0.0178,-0.0169,-0.0237,-0.0236,-0.0279,-0.0326,-0.0335,-0.0344,-0.0359,-0.0374,-0.0366,-0.036,-0.035,-0.04,-0.0396,-0.0392,-0.0438,-0.0438,-0.0438,0,0,-0.0074,-0.0087,-0.0062,-0.0068,-0.0083,-0.0102,-0.0097,-0.0123,-0.0135,-0.0144,-0.019,-0.0221,-0.0261,-0.029,-0.031,-0.0286,-0.0339,-0.0299,-0.0243,-0.0288,-0.0285,-0.0282,-0.0316,-0.0318,-0.0294,-0.0293,-0.0293,0,-0.0052,-0.0023,-0.0054,-0.0032,-0.0026,-0.0079,-0.0047,-0.0066,-0.0095,-0.01,-0.0131,-0.0194,-0.0239,-0.0248,-0.0242,-0.027,-0.0301,-0.0266,-0.0278,-0.0277,-0.0276,-0.0311,-0.0314,-0.0289,-0.029,-0.029,-0.029,0,0.0015,0.0036,0.0054,0.0061,0.0064,0.0083,0.0056,0.0049,0.0018,-0.0008,-0.0032,-0.0099,-0.0134,-0.0158,-0.0193,-0.0203,-0.0229,-0.0265,-0.0293,-0.0266,-0.0306,-0.031,-0.0283,-0.0284,-0.0286,-0.0287,0,0,0.0078,0.0096,0.0104,0.0126,0.0117,0.0132,0.0144,0.0141,0.0154,0.0097,0.0106,0.0039,-0.001,-0.0036,-0.0092,-0.0135,-0.0162,-0.0188,-0.0192,-0.0212,-0.0252,-0.0269,-0.0276,-0.02,-0.0201,-0.0201,-0.028,0,0.0139,0.0205,0.0195,0.0258,0.0291,0.0255,0.0276,0.0264,0.0231,0.0222,0.0139,0.0119,0.0041,0.0024,-0.003,-0.0127,-0.017,-0.0136,-0.0284,-0.0288,-0.0299,-0.0281,-0.0268,-0.0337,-0.0285,-0.0285,-0.0286,0,0.0212,0.0247,0.0319,0.0364,0.0375,0.0398,0.042,0.0432,0.0395,0.0365,0.0316,0.0252,0.0187,0.011,-0.0036,-0.001,-0.0117,-0.0202,-0.0208,-0.0256,-0.0313,-0.0359,-0.0348,-0.058,-0.0293,-0.0293,-0.0292,0,0.0281,0.034,0.0402,0.0417,0.0449,0.0473,0.0486,0.0474,0.0507,0.0454,0.0463,0.0358,0.0322,0.0171,-0.0002,-0.002,-0.0167,-0.022,-0.0335,-0.0337,-0.0371,-0.0375,-0.0592,-0.0322,-0.0322,-0.0322,-0.0322,0,0.0358,0.0409,0.0438,0.0471,0.0551,0.0546,0.0619,0.0604,0.0616,0.0666,0.0544,0.0563,0.0335,0.0227,0.0044,-0.0147,-0.0137,-0.0315,-0.0357,-0.0339,-0.034,-0.058,-0.0704,-0.0325,-0.0324,-0.0324,-0.0323,0,0.0427,0.0441,0.0519,0.0565,0.0584,0.0643,0.0719,0.0775,0.0757,0.0818,0.0813,0.0724,0.0578,0.0348,0.0109,-0.0068,-0.0398,-0.0339,-0.0296,-0.0331,-0.0657,-0.0775,-0.1029,-0.1129,-0.0479,-0.048,-0.0481,0,0.0467,0.0513,0.059,0.0644,0.0665,0.0748,0.0813,0.0837,0.0909,0.0931,0.0981,0.0868,0.0822,0.0465,0.0117,-0.0204,-0.0422,-0.0409,-0.0449,-0.0667,-0.083,-0.0927,-0.0999,-0.0461,-0.0462,-0.0462,-0.0462,0,0.0546,0.0569,0.0632,0.0741,0.0818,0.0924,0.1018,0.1105,0.1145,0.12,0.1263,0.1233,0.0893,0.0592,0.0137,-0.0111,-0.0575,-0.0427,-0.0673,-0.0845,-0.0945,-0.1062,-0.0416,-0.0466,-0.0466,-0.0465,-0.0465,-0.0465,0.0604,0.0666,0.0745,0.0854,0.0952,0.1089,0.1197,0.1308,0.1443,0.1554,0.1504,0.1511,0.1045,0.0435,0.0058,-0.0614,-0.0624,-0.0809,-0.0935,-0.1014,-0.1114,-0.0465,-0.0551,-0.0551,-0.0551,-0.0551,-0.0551,0,0.0681,0.0748,0.0854,0.0988,0.1118,0.1149,0.1332,0.1449,0.1623,0.1739,0.1799,0.1617,0.1019,0.0398,-0.0491,-0.1005,-0.1205,-0.1301,-0.1453,-0.1503,-0.0944,-0.0946,-0.1096,-0.1096,-0.1096,-0.1096,-0.1095,-0.1095,0.0724,0.0837,0.0892,0.1106,0.1207,0.1391,0.1507,0.1668,0.1801,0.1972,0.2027,0.2021,0.1577,-0.0071,-0.1239,-0.1534,-0.1877,-0.1977,-0.2153,-0.1796,-0.176,-0.1726,-0.1759,-0.2077,-0.2078,-0.2647,-0.2653,-0.2657]}],[{"header":{"parameterUnit":"m.s-1","parameterCategory":2,"la1":30.2991,"la2":30.254,"lo1":-89.0895,"lo2":-89.0444,"dx":0.0017,"dy":0.0017,"nx":28,"ny":28,"refTime":"2022-12-23T15:00:00:Z","depth":"2","parameterNumber":2,"parameterNumberName":"U-component_of_CURRENTS"},"data":[0,0,0,0,0,0,0,0,0,0,0,0,0,0,0,0,0,0,0,0,0,0,0,0,0,0,0,0,0,0,0,0,0,0,0,0,0,0,0,0,0,0,0,0,0,0,0,0,0,0,0,0,0,0,0,0,0,0,0.3103,0.3104,0,0.3162,0.3162,0.3162,0.3178,0.3178,0.3178,0.3178,0.3193,0.3194,0.3194,0,0,0,0,0,0,0,0,0,0,0,0,0,0.2995,0.2997,0.3103,0.3104,0.3105,0.3162,0.3162,0.3162,0.3178,0.3178,0.3178,0.3178,0.3193,0.3194,0.3194,0,0,0,0,0,0,0,0,0,0,0,0,0,0.3043,0.2997,0.3103,0.3122,0.3125,0.3161,0.3162,0.3163,0.3178,0.3178,0.3178,0.3178,0.3193,0.3194,0.3194,0.3198,0,0,0.3196,0.3196,0,0,0,0,0,0,0,0,0.304,0.3047,0.3118,0.3121,0.3124,0.3166,0.313,0.3173,0.3178,0.3154,0.3178,0.3178,0.3183,0.3184,0.319,0.3198,0.3199,0.3196,0.3196,0.3197,0.3197,0,0,0,0,0,0,0,0.3037,0.3044,0.3122,0.312,0.3123,0.3126,0.3132,0.3138,0.3164,0.3156,0.3158,0.3171,0.3183,0.319,0.3191,0.3199,0.3196,0.3196,0.3197,0.3197,0.3255,0.3256,0,0,0,0,0,0,0.3038,0.3041,0.312,0.3124,0.3086,0.3128,0.3135,0.3149,0.3165,0.3169,0.3171,0.3172,0.3189,0.319,0.3191,0.3234,0.3197,0.3197,0.3197,0.3253,0.3255,0.3256,0,0,0,0,0,0,0.3036,0.3045,0.3118,0.3087,0.3097,0.313,0.3146,0.3151,0.3168,0.3177,0.3179,0.3186,0.3189,0.319,0.3213,0.3233,0.3197,0.3198,0.3252,0.3254,0.3255,0.3295,0,0,0,0,0,0,0.3032,0.3044,0.3053,0.3087,0.3099,0.3153,0.3147,0.3152,0.3177,0.3179,0.319,0.3191,0.3189,0.3212,0.3214,0.3233,0.3198,0.325,0.3253,0.3255,0.3292,0.3298,0.3303,0,0,0,0,0,0.3028,0.3044,0.3053,0.3063,0.3111,0.3154,0.316,0.3181,0.3178,0.3194,0.3202,0.3191,0.3227,0.3214,0.3215,0.3235,0.3249,0.3252,0.3255,0.329,0.3297,0.3303,0,0,0,0,0,0,0.2996,0.3049,0.3059,0.3088,0.3124,0.3159,0.3178,0.3187,0.3206,0.3208,0.3205,0.3208,0.3239,0.3231,0.3217,0.326,0.3237,0.324,0.3263,0.327,0.3275,0.3286,0.3199,0,0,0,0,0,0.2995,0.3028,0.307,0.3097,0.3117,0.3147,0.3166,0.3183,0.3206,0.3214,0.3221,0.3231,0.3249,0.3255,0.3269,0.3287,0.3302,0.3302,0.3307,0.3312,0.3323,0.3364,0.3374,0.3265,0.3265,0.3265,0,0,0.2987,0.3025,0.304,0.3093,0.3123,0.3152,0.3159,0.3198,0.3219,0.3212,0.324,0.3253,0.3261,0.3289,0.3301,0.3284,0.3353,0.3315,0.3319,0.3328,0.3368,0.3379,0.3388,0.3267,0.3266,0.3266,0,0,0.2992,0.3027,0.3052,0.3086,0.314,0.3165,0.3179,0.322,0.3237,0.3266,0.3272,0.33,0.3314,0.3332,0.3339,0.3381,0.3384,0.3384,0.3413,0.3453,0.3462,0.3471,0.3511,0.3523,0.3379,0.338,0.338,0,0.2977,0.3021,0.3065,0.3098,0.3131,0.3171,0.3201,0.3225,0.3265,0.3289,0.328,0.3335,0.3336,0.3382,0.3398,0.3393,0.3418,0.3386,0.346,0.3469,0.3477,0.3516,0.3528,0.3382,0.3382,0.3381,0.3381,0,0.2998,0.3035,0.3058,0.3116,0.3152,0.3193,0.3236,0.3272,0.3296,0.332,0.3376,0.3388,0.3423,0.3427,0.3423,0.3484,0.3486,0.3467,0.3443,0.349,0.3528,0.3541,0.3385,0.3384,0.3384,0.3383,0,0,0.2957,0.3054,0.3059,0.3085,0.317,0.3192,0.3254,0.3317,0.3353,0.3389,0.3439,0.3472,0.3491,0.3502,0.3508,0.3536,0.361,0.3528,0.3529,0.3567,0.3709,0.37,0.3712,0.3607,0.361,0.3611,0.3716,0,0.2961,0.3014,0.3073,0.3119,0.315,0.3223,0.3268,0.3328,0.3385,0.344,0.348,0.3523,0.3515,0.3537,0.3571,0.361,0.3643,0.3584,0.3659,0.3662,0.3647,0.3727,0.3446,0.3515,0.3728,0.373,0.3731,0,0.2956,0.2997,0.3046,0.3123,0.3143,0.3177,0.3273,0.3321,0.3424,0.3466,0.354,0.3579,0.3653,0.362,0.3722,0.3689,0.3708,0.3722,0.3726,0.3713,0.3675,0.3502,0.3529,0.3751,0.375,0.3748,0.3747,0,0.2891,0.2973,0.3012,0.3039,0.3131,0.3171,0.3224,0.3329,0.3399,0.3495,0.3566,0.3641,0.3708,0.3745,0.381,0.3771,0.3914,0.3857,0.3866,0.3865,0.3639,0.3615,0.3918,0.3918,0.3918,0.3918,0.3917,0,0.2873,0.2895,0.298,0.2994,0.3039,0.3117,0.3191,0.326,0.3394,0.3476,0.3574,0.3663,0.3746,0.3846,0.3854,0.3929,0.3959,0.39,0.3902,0.3647,0.3624,0.3829,0.3818,0.3922,0.3921,0.392,0.3919,0,0.2801,0.2861,0.29,0.2985,0.3013,0.3041,0.3182,0.3242,0.3372,0.3495,0.3538,0.3725,0.3849,0.3936,0.4019,0.4007,0.4049,0.4055,0.3762,0.3729,0.3955,0.3944,0.407,0.407,0.4071,0.4072,0.4072,0,0.2772,0.2787,0.2869,0.2893,0.2937,0.3003,0.3059,0.3206,0.3292,0.3521,0.3578,0.3774,0.3881,0.4048,0.4054,0.4098,0.4112,0.3845,0.3714,0.3987,0.3976,0.3964,0.3952,0.3425,0.342,0.3416,0.3413,0,0.271,0.2744,0.2774,0.2827,0.288,0.2938,0.3034,0.3107,0.328,0.3409,0.3579,0.3694,0.3889,0.3837,0.3932,0.3899,0.3815,0.3769,0.4133,0.3446,0.3392,0.3377,0.3384,0.3377,0.3381,0.3384,0.3385,0.3387,0.2657,0.2665,0.2707,0.2753,0.2804,0.2845,0.286,0.2984,0.3102,0.3241,0.3435,0.3504,0.3602,0.3618,0.3539,0.3483,0.3729,0.3536,0.3542,0.3554,0.3477,0.3428,0.3406,0.3409,0.3412,0.3415,0.3418,0,0.2577,0.26,0.2632,0.267,0.2676,0.2741,0.2818,0.2808,0.288,0.3052,0.3169,0.2999,0.3028,0.3099,0.2989,0.3031,0.2928,0.2884,0.2706,0.2749,0.2785,0.2659,0.2376,0.2372,0.2368,0.2364,0,0,0.2533,0.2522,0.2543,0.2521,0.2549,0.251,0.2518,0.2527,0.2608,0.2623,0.2653,0.2903,0.3057,0.2666,0.2654,0.249,0.2579,0.2398,0.3254,0.3091,0.3121,0.321,0.3076,0,0,0,0,0]},{"header":{"parameterUnit":"m.s-1","parameterCategory":2,"la1":30.2991,"la2":30.254,"lo1":-89.0895,"lo2":-89.0444,"dx":0.0017,"dy":0.0017,"nx":28,"ny":28,"refTime":"2022-12-23T15:00:00:Z","depth":"2","parameterNumber":3,"parameterNumberName":"V-component_of_CURRENTS"},"data":[0,0,0,0,0,0,0,0,0,0,0,0,0,0,0,0,0,0,0,0,0,0,0,0,0,0,0,0,0,0,0,0,0,0,0,0,0,0,0,0,0,0,0,0,0,0,0,0,0,0,0,0,0,0,0,0,0,0,-0.0052,-0.0052,0,-0.0099,-0.01,-0.0101,-0.0144,-0.0144,-0.0145,-0.0145,-0.0228,-0.023,-0.0232,0,0,0,0,0,0,0,0,0,0,0,0,0,-0.005,-0.0049,-0.0052,-0.0052,-0.0053,-0.0099,-0.01,-0.0101,-0.0144,-0.0144,-0.0145,-0.0145,-0.0228,-0.023,-0.0232,0,0,0,0,0,0,0,0,0,0,0,0,0,-0.007,-0.0049,-0.0052,-0.0079,-0.0082,-0.0099,-0.01,-0.0101,-0.0144,-0.0144,-0.0145,-0.0145,-0.0227,-0.023,-0.0232,-0.0237,0,0,-0.0241,-0.0242,0,0,0,0,0,0,0,0,-0.0069,-0.0071,-0.0074,-0.0077,-0.008,-0.0115,-0.013,-0.0148,-0.0143,-0.0121,-0.0145,-0.0146,-0.0192,-0.0198,-0.0207,-0.0241,-0.0245,-0.0241,-0.0243,-0.0244,-0.0245,0,0,0,0,0,0,0,-0.0068,-0.0069,-0.0072,-0.0075,-0.0078,-0.0106,-0.0109,-0.0134,-0.0155,-0.0123,-0.0126,-0.0129,-0.0195,-0.0204,-0.0209,-0.0246,-0.0241,-0.0243,-0.0245,-0.0246,-0.0298,-0.0298,0,0,0,0,0,0,-0.0056,-0.0067,-0.007,-0.0073,-0.0075,-0.0105,-0.0109,-0.0104,-0.0154,-0.0161,-0.0129,-0.0131,-0.0199,-0.0206,-0.0212,-0.0213,-0.0244,-0.0246,-0.0248,-0.0298,-0.0298,-0.0298,0,0,0,0,0,0,-0.0055,-0.0055,-0.0068,-0.0071,-0.0075,-0.0104,-0.0099,-0.0105,-0.0114,-0.0157,-0.0166,-0.0132,-0.02,-0.0209,-0.0227,-0.0217,-0.0248,-0.025,-0.0299,-0.0298,-0.0298,-0.022,0,0,0,0,0,0,-0.0055,-0.0054,-0.0049,-0.007,-0.0074,-0.0068,-0.0098,-0.0105,-0.0115,-0.0118,-0.0163,-0.0171,-0.0201,-0.0222,-0.023,-0.0221,-0.0252,-0.0299,-0.0298,-0.0298,-0.0223,-0.0217,-0.0212,0,0,0,0,0,-0.0054,-0.0031,-0.0048,-0.0049,-0.0064,-0.0067,-0.0071,-0.0096,-0.0114,-0.0109,-0.0141,-0.017,-0.0225,-0.0224,-0.0233,-0.0225,-0.0299,-0.0299,-0.0298,-0.0225,-0.0218,-0.0212,0,0,0,0,0,0,-0.0022,-0.0034,-0.0053,-0.0034,-0.0049,-0.0073,-0.0069,-0.0091,-0.0112,-0.0117,-0.0162,-0.0172,-0.0187,-0.0216,-0.0215,-0.024,-0.0268,-0.0269,-0.021,-0.0204,-0.0198,-0.0175,-0.0255,0,0,0,0,0,-0.0013,-0.0002,-0.0023,-0.0009,-0.0014,-0.0044,-0.005,-0.0066,-0.0087,-0.0098,-0.0131,-0.0165,-0.0191,-0.0204,-0.0232,-0.0242,-0.0276,-0.0245,-0.0239,-0.0234,-0.0222,-0.0269,-0.0267,-0.0295,-0.0295,-0.0296,0,0,0.0004,-0.0002,0.0005,-0.0002,-0.0017,-0.0008,-0.0049,-0.0048,-0.0041,-0.0103,-0.0106,-0.0146,-0.0189,-0.02,-0.021,-0.0223,-0.0244,-0.0233,-0.0229,-0.0219,-0.0269,-0.0266,-0.0263,-0.0295,-0.0295,-0.0295,0,0,0.0051,0.0038,0.0061,0.0055,0.004,0.0023,0.0026,0.0001,-0.0012,-0.0022,-0.0065,-0.0098,-0.0135,-0.0164,-0.0183,-0.0165,-0.0214,-0.0177,-0.0128,-0.0174,-0.0172,-0.017,-0.0206,-0.0208,-0.0173,-0.0173,-0.0173,0,0.0069,0.0096,0.0068,0.0087,0.0093,0.0042,0.007,0.0052,0.0023,0.0017,-0.0012,-0.0074,-0.0117,-0.0129,-0.0125,-0.0151,-0.0181,-0.0147,-0.0166,-0.0165,-0.0165,-0.0202,-0.0206,-0.0169,-0.017,-0.017,-0.017,0,0.013,0.0148,0.0164,0.017,0.0172,0.0189,0.0162,0.0154,0.0123,0.0098,0.0072,0.0009,-0.0027,-0.0051,-0.0083,-0.0098,-0.0121,-0.0153,-0.0178,-0.0157,-0.0198,-0.0203,-0.0164,-0.0165,-0.0166,-0.0167,0,0,0.0184,0.0203,0.0209,0.0229,0.0219,0.0233,0.0241,0.0236,0.0246,0.019,0.0195,0.0129,0.0083,0.0058,0.0004,-0.004,-0.0072,-0.0087,-0.0092,-0.0114,-0.0165,-0.0186,-0.0194,-0.0107,-0.0108,-0.0108,-0.0192,0,0.0238,0.0299,0.029,0.0347,0.0378,0.0343,0.0361,0.0347,0.0315,0.0303,0.0223,0.0202,0.0128,0.0111,0.0056,-0.0037,-0.0082,-0.0046,-0.0189,-0.0193,-0.0208,-0.02,-0.0174,-0.0246,-0.0197,-0.0198,-0.0199,0,0.0304,0.0336,0.0403,0.0444,0.0454,0.0474,0.0493,0.0502,0.0463,0.0434,0.0384,0.0323,0.0257,0.0186,0.004,0.0068,-0.0036,-0.0118,-0.0124,-0.0173,-0.0224,-0.0262,-0.0258,-0.0208,-0.0207,-0.0206,-0.0206,0,0.0366,0.042,0.0478,0.0491,0.0522,0.0542,0.0555,0.054,0.057,0.0515,0.0523,0.0418,0.0381,0.0235,0.0067,0.0053,-0.0098,-0.0144,-0.026,-0.0263,-0.0283,-0.0286,-0.0248,-0.0247,-0.0247,-0.0247,-0.0247,0,0.0435,0.0482,0.051,0.0541,0.0616,0.0611,0.0677,0.0661,0.0671,0.0717,0.0599,0.0612,0.0392,0.0283,0.0107,-0.0083,-0.0072,-0.0245,-0.0286,-0.0255,-0.0255,-0.0257,-0.0257,-0.025,-0.0249,-0.0249,-0.0248,0,0.0497,0.0511,0.0584,0.0628,0.0646,0.0701,0.0773,0.0825,0.0806,0.0862,0.0857,0.0762,0.0613,0.0392,0.0156,-0.0014,-0.0208,-0.0281,-0.0224,-0.0257,-0.0354,-0.0349,-0.0421,-0.0422,-0.0424,-0.0425,-0.0426,0,0.0533,0.0577,0.065,0.0702,0.0722,0.08,0.0863,0.0884,0.0951,0.0966,0.1011,0.0892,0.0833,0.0478,0.0146,-0.0166,-0.0205,-0.0347,-0.0379,-0.0339,-0.0372,-0.0365,-0.0358,-0.0377,-0.0377,-0.0377,-0.0378,0,0.0606,0.0628,0.0688,0.0793,0.0867,0.0968,0.1057,0.1137,0.1173,0.1219,0.1264,0.1221,0.0883,0.0575,0.0136,-0.0083,-0.0301,-0.0364,-0.034,-0.0332,-0.0304,-0.0333,-0.0327,-0.038,-0.038,-0.038,-0.038,-0.038,0.066,0.0718,0.0795,0.0899,0.0994,0.1122,0.1224,0.1322,0.1441,0.1517,0.1464,0.1398,0.1038,0.0485,0.0096,-0.0324,-0.0307,-0.0448,-0.0445,-0.0442,-0.0417,-0.0392,-0.0481,-0.0481,-0.0481,-0.0481,-0.0481,0,0.0731,0.0796,0.0897,0.1025,0.1147,0.118,0.135,0.1444,0.159,0.1645,0.167,0.1338,0.0982,0.0561,-0.0056,-0.0417,-0.0453,-0.0534,-0.0489,-0.0483,-0.0479,-0.0455,-0.053,-0.0531,-0.0532,-0.0533,0,0,0.0771,0.0878,0.0931,0.1133,0.123,0.14,0.1507,0.1622,0.1698,0.1751,0.1719,0.1633,0.1124,0.0682,0.0181,-0.0172,-0.0249,-0.0253,-0.0176,-0.0059,-0.005,-0.0394,-0.0346,0,0,0,0,0]}],[{"header":{"parameterUnit":"m.s-1","parameterCategory":2,"la1":30.2991,"la2":30.254,"lo1":-89.0895,"lo2":-89.0444,"dx":0.0017,"dy":0.0017,"nx":28,"ny":28,"refTime":"2022-12-23T15:00:00:Z","depth":"4","parameterNumber":2,"parameterNumberName":"U-component_of_CURRENTS"},"data":[0,0,0,0,0,0,0,0,0,0,0,0,0,0,0,0,0,0,0,0,0,0,0,0,0,0,0,0,0,0,0,0,0,0,0,0,0,0,0,0,0,0,0,0,0,0,0,0,0,0,0,0,0,0,0,0,0,0,0.2019,0.202,0,0.2113,0.2114,0.2115,0.2194,0.2195,0.2196,0.2197,0.2296,0.2297,0.2299,0,0,0,0,0,0,0,0,0,0,0,0,0,0.1893,0.1894,0.2019,0.202,0.2022,0.2113,0.2114,0.2115,0.2194,0.2195,0.2196,0.2198,0.2295,0.2297,0.2299,0,0,0,0,0,0,0,0,0,0,0,0,0,0.196,0.1895,0.2019,0.2074,0.208,0.2113,0.2114,0.2115,0.2193,0.2195,0.2197,0.2198,0.2294,0.2297,0.2299,0.228,0,0,0.2306,0.2307,0,0,0,0,0,0,0,0,0.1956,0.1965,0.2065,0.207,0.2077,0.2146,0.2106,0.2171,0.2193,0.2147,0.2197,0.2199,0.2246,0.2253,0.2263,0.2285,0.2289,0.2307,0.2308,0.2309,0.231,0,0,0,0,0,0,0,0.1952,0.1961,0.2053,0.2066,0.2074,0.2089,0.2101,0.2118,0.2184,0.2152,0.2158,0.2173,0.225,0.226,0.2266,0.229,0.2306,0.2309,0.231,0.2311,0.2434,0.2436,0,0,0,0,0,0,0.1945,0.1957,0.205,0.2056,0.2023,0.2091,0.2103,0.212,0.2184,0.2197,0.2171,0.2176,0.2255,0.2263,0.227,0.2372,0.2309,0.2311,0.2313,0.2432,0.2434,0.2436,0,0,0,0,0,0,0.1942,0.1952,0.2047,0.2011,0.2024,0.2091,0.2109,0.2121,0.2178,0.22,0.2212,0.2222,0.2257,0.2266,0.233,0.2372,0.2312,0.2314,0.243,0.2433,0.2435,0.2498,0,0,0,0,0,0,0.1938,0.1951,0.1978,0.201,0.2026,0.2096,0.2108,0.2122,0.2182,0.2191,0.2246,0.2254,0.2259,0.2326,0.2332,0.2374,0.2316,0.2428,0.2431,0.2435,0.2494,0.2503,0.2511,0,0,0,0,0,0.1933,0.1958,0.1979,0.1991,0.2056,0.2098,0.2108,0.2158,0.2184,0.2214,0.2257,0.2255,0.2353,0.233,0.2336,0.2379,0.2426,0.243,0.2434,0.249,0.2501,0.251,0,0,0,0,0,0,0.1916,0.197,0.1993,0.2034,0.2078,0.2113,0.2154,0.218,0.2237,0.226,0.2276,0.2288,0.2361,0.2359,0.2334,0.2426,0.2389,0.2395,0.243,0.244,0.2448,0.2453,0.2318,0,0,0,0,0,0.1924,0.1965,0.2008,0.2048,0.2074,0.2121,0.2152,0.2186,0.223,0.2259,0.2296,0.2337,0.2373,0.2401,0.243,0.2476,0.2478,0.2509,0.2517,0.2524,0.2534,0.2569,0.2581,0.245,0.245,0.245,0,0,0.1929,0.1966,0.199,0.2049,0.2091,0.213,0.2146,0.2208,0.2249,0.2258,0.2341,0.2372,0.2393,0.2453,0.2484,0.2463,0.2565,0.2529,0.2535,0.2541,0.2575,0.2587,0.2599,0.2453,0.2453,0.2452,0,0,0.1945,0.1996,0.2031,0.2071,0.2141,0.2169,0.2195,0.2255,0.23,0.2366,0.239,0.2449,0.2502,0.2528,0.2544,0.2614,0.261,0.263,0.2676,0.2711,0.2722,0.2731,0.2756,0.2767,0.2631,0.2632,0.2632,0,0.1951,0.2001,0.2048,0.2088,0.2132,0.2189,0.2233,0.2276,0.2352,0.2394,0.2407,0.2512,0.2534,0.26,0.2632,0.2634,0.2651,0.2634,0.2721,0.2731,0.2739,0.2762,0.2774,0.2635,0.2635,0.2634,0.2634,0,0.1978,0.2035,0.2064,0.2135,0.2183,0.2238,0.2297,0.2361,0.2421,0.2461,0.256,0.2595,0.2657,0.2675,0.2678,0.2757,0.275,0.2729,0.2692,0.2756,0.2777,0.2787,0.264,0.2639,0.2638,0.2637,0,0,0.1947,0.2061,0.2075,0.2118,0.222,0.2252,0.234,0.2424,0.2484,0.2563,0.2639,0.2712,0.2748,0.2768,0.2786,0.2818,0.2897,0.281,0.281,0.283,0.298,0.2814,0.281,0.2897,0.2899,0.2901,0.2971,0,0.1962,0.2036,0.2099,0.218,0.2224,0.2313,0.2381,0.2465,0.2546,0.2631,0.2693,0.277,0.2777,0.2821,0.286,0.2895,0.2929,0.288,0.292,0.2921,0.2762,0.2818,0.2908,0.2979,0.2982,0.2983,0.2985,0,0.196,0.2016,0.2098,0.2206,0.2236,0.2299,0.2428,0.2495,0.2622,0.2687,0.2783,0.2835,0.2928,0.2906,0.3004,0.2979,0.2994,0.3003,0.3005,0.2834,0.2775,0.2902,0.3004,0.3003,0.3001,0.3,0.2999,0,0.1895,0.2011,0.2082,0.212,0.2248,0.2318,0.2396,0.2524,0.2603,0.2736,0.2812,0.2909,0.2986,0.3024,0.3077,0.3053,0.316,0.3117,0.2978,0.2967,0.3068,0.3057,0.3172,0.3172,0.3172,0.3171,0.3171,0,0.1867,0.1924,0.2065,0.2098,0.2188,0.229,0.2402,0.2491,0.2638,0.2721,0.2844,0.2916,0.3025,0.3102,0.3111,0.3087,0.3194,0.2996,0.2975,0.3093,0.3084,0.3075,0.3063,0.3174,0.3174,0.3173,0.3173,0,0.1783,0.188,0.1962,0.211,0.2164,0.2228,0.2409,0.2477,0.263,0.2748,0.2802,0.2967,0.305,0.3135,0.3202,0.3121,0.3111,0.3074,0.3216,0.3201,0.2884,0.2875,0.2906,0.29,0.2896,0.2892,0.2889,0,0.1745,0.1784,0.195,0.2003,0.2085,0.2203,0.2281,0.2454,0.2529,0.2746,0.2783,0.2944,0.3024,0.2995,0.3084,0.3087,0.3052,0.3024,0.2927,0.2881,0.2859,0.2857,0.2853,0.2882,0.2881,0.288,0.2878,0,0.1666,0.1749,0.1815,0.1926,0.2025,0.2111,0.2239,0.2282,0.2466,0.2638,0.2698,0.2746,0.2838,0.2879,0.292,0.291,0.3022,0.2976,0.2984,0.2893,0.2853,0.2835,0.2837,0.2863,0.2865,0.2867,0.2867,0,0.1612,0.1639,0.1741,0.1826,0.1935,0.1979,0.2064,0.2149,0.2246,0.2483,0.2494,0.2654,0.2806,0.2789,0.2819,0.2809,0.2752,0.2643,0.2667,0.2685,0.258,0.2495,0.2383,0,0,0,0,0,0.1542,0.156,0.1629,0.1709,0.1808,0.187,0.2013,0.21,0.2284,0.2268,0.2377,0.2443,0.2494,0.2579,0.2522,0.2718,0.2763,0.264,0.2649,0.2777,0.2795,0.2691,0,0,0,0,0,0,0.1492,0.1549,0.158,0.159,0.1621,0.171,0.1789,0.1916,0.1916,0.211,0.2152,0.23,0.2388,0.2504,0.2478,0.2503,0.2458,0.2748,0.2742,0.2767,0.2783,0.2798,0.2697,0,0,0,0,0]},{"header":{"parameterUnit":"m.s-1","parameterCategory":2,"la1":30.2991,"la2":30.254,"lo1":-89.0895,"lo2":-89.0444,"dx":0.0017,"dy":0.0017,"nx":28,"ny":28,"refTime":"2022-12-23T15:00:00:Z","depth":"4","parameterNumber":3,"parameterNumberName":"V-component_of_CURRENTS"},"data":[0,0,0,0,0,0,0,0,0,0,0,0,0,0,0,0,0,0,0,0,0,0,0,0,0,0,0,0,0,0,0,0,0,0,0,0,0,0,0,0,0,0,0,0,0,0,0,0,0,0,0,0,0,0,0,0,0,0,0.0095,0.0095,0,0.0063,0.0062,0.0062,0.0034,0.0033,0.0033,0.0033,-0.0026,-0.0027,-0.0028,0,0,0,0,0,0,0,0,0,0,0,0,0,0.0098,0.0099,0.0095,0.0095,0.0094,0.0063,0.0062,0.0062,0.0034,0.0033,0.0033,0.0033,-0.0025,-0.0027,-0.0028,0,0,0,0,0,0,0,0,0,0,0,0,0,0.0084,0.0099,0.0095,0.0077,0.0075,0.0063,0.0062,0.0062,0.0034,0.0033,0.0033,0.0033,-0.0025,-0.0027,-0.0029,-0.0033,0,0,-0.0035,-0.0036,0,0,0,0,0,0,0,0,0.0085,0.0084,0.008,0.0078,0.0076,0.0052,0.0042,0.0029,0.0034,0.0049,0.0033,0.0032,-0.0001,-0.0005,-0.0011,-0.0035,-0.0038,-0.0035,-0.0036,-0.0037,-0.0037,0,0,0,0,0,0,0,0.0086,0.0085,0.0082,0.008,0.0077,0.0059,0.0057,0.0039,0.0025,0.0047,0.0045,0.0043,-0.0003,-0.0009,-0.0013,-0.0039,-0.0035,-0.0037,-0.0038,-0.0039,-0.0083,-0.0083,0,0,0,0,0,0,0.0094,0.0086,0.0083,0.0081,0.008,0.0059,0.0057,0.006,0.0026,0.0021,0.0043,0.0042,-0.0005,-0.001,-0.0015,-0.0022,-0.0037,-0.0039,-0.004,-0.0083,-0.0083,-0.0083,0,0,0,0,0,0,0.0094,0.0094,0.0084,0.0083,0.008,0.006,0.0063,0.0059,0.0054,0.0023,0.0017,0.0042,-0.0006,-0.0012,-0.0026,-0.0024,-0.004,-0.0041,-0.0083,-0.0083,-0.0083,-0.0036,0,0,0,0,0,0,0.0094,0.0094,0.0099,0.0084,0.0081,0.0083,0.0064,0.0059,0.0053,0.0051,0.002,0.0014,-0.0007,-0.0022,-0.0028,-0.0027,-0.0043,-0.0083,-0.0083,-0.0083,-0.0038,-0.0034,-0.0032,0,0,0,0,0,0.0095,0.0111,0.0099,0.0099,0.0088,0.0083,0.0081,0.0064,0.0053,0.0056,0.0035,0.0015,-0.0027,-0.0024,-0.003,-0.003,-0.0083,-0.0083,-0.0083,-0.0039,-0.0035,-0.0032,0,0,0,0,0,0,0.0116,0.0109,0.0096,0.0109,0.0097,0.0079,0.0082,0.0068,0.0053,0.0051,0.002,0.0013,-0.0001,-0.0021,-0.0017,-0.0045,-0.006,-0.0062,-0.0024,-0.0021,-0.0018,-0.0003,-0.0045,0,0,0,0,0,0.0123,0.0131,0.0115,0.0125,0.0121,0.01,0.0096,0.0085,0.007,0.0063,0.004,0.0015,-0.0005,-0.0017,-0.0037,-0.0048,-0.0077,-0.0055,-0.0052,-0.0049,-0.0042,-0.0087,-0.0087,-0.0084,-0.0084,-0.0084,0,0,0.0135,0.013,0.0136,0.0129,0.0119,0.0124,0.0097,0.0097,0.0099,0.0059,0.0055,0.0026,-0.0006,-0.0019,-0.0027,-0.0035,-0.0066,-0.0049,-0.0046,-0.004,-0.0087,-0.0087,-0.0088,-0.0084,-0.0084,-0.0084,0,0,0.0164,0.0158,0.0173,0.0168,0.0157,0.0145,0.0147,0.0129,0.0119,0.0111,0.008,0.0053,0.0026,-0.0,-0.0016,-0.001,-0.0048,-0.0019,0.0008,-0.0036,-0.0036,-0.0037,-0.0074,-0.0078,-0.0018,-0.0018,-0.0018,0,0.0176,0.0193,0.0176,0.0187,0.019,0.0158,0.0174,0.016,0.0139,0.0132,0.0116,0.0066,0.0034,0.0014,0.0014,-0.0004,-0.0031,-0.0001,-0.0031,-0.0033,-0.0035,-0.0072,-0.0078,-0.0016,-0.0016,-0.0017,-0.0017,0,0.0212,0.0225,0.0235,0.0238,0.0239,0.0249,0.0229,0.0223,0.0204,0.0183,0.0159,0.0112,0.0083,0.0062,0.0041,0.0014,-0.0001,-0.0021,-0.0037,-0.0032,-0.0072,-0.0079,-0.0013,-0.0014,-0.0014,-0.0015,0,0,0.0242,0.0258,0.0262,0.0276,0.0269,0.0277,0.028,0.0272,0.0276,0.0235,0.0233,0.0179,0.0147,0.0126,0.0086,0.0043,0.0002,0.0012,0.0009,-0.0018,-0.0089,-0.0097,-0.0105,-0.0022,-0.0023,-0.0024,-0.0112,0,0.0273,0.0313,0.0309,0.0346,0.0365,0.0345,0.0355,0.0342,0.0318,0.0305,0.0243,0.0225,0.0173,0.0161,0.0109,0.0034,-0.0013,0.0028,-0.0095,-0.0099,-0.0102,-0.0113,-0.0027,-0.0117,-0.0119,-0.012,-0.0121,0,0.0309,0.0332,0.0377,0.0409,0.0416,0.0431,0.0443,0.0448,0.0414,0.0394,0.0352,0.0305,0.0244,0.0198,0.0066,0.0097,0.0011,-0.0056,-0.0062,-0.0088,-0.0119,-0.0126,-0.0133,-0.0132,-0.0131,-0.0131,-0.013,0,0.0343,0.0383,0.0424,0.0433,0.0458,0.0476,0.0489,0.0475,0.0494,0.0451,0.0456,0.0363,0.0332,0.0211,0.0073,0.007,-0.0077,-0.0101,-0.0192,-0.0194,-0.018,-0.0179,-0.0199,-0.0199,-0.0199,-0.0199,-0.0199,0,0.0378,0.0413,0.0447,0.0468,0.0525,0.0526,0.0575,0.0565,0.0571,0.0596,0.051,0.0503,0.0335,0.0234,0.0094,-0.0065,-0.0065,-0.0187,-0.0218,-0.0158,-0.0153,-0.0185,-0.0182,-0.0202,-0.0201,-0.0201,-0.02,0,0.0408,0.0426,0.0481,0.0523,0.0543,0.0586,0.065,0.0685,0.0676,0.0706,0.0703,0.0611,0.0472,0.0297,0.0095,-0.0023,-0.0185,-0.0244,-0.0159,-0.0183,-0.0278,-0.0271,-0.0351,-0.0352,-0.0353,-0.0354,-0.0354,0,0.0423,0.0455,0.0526,0.0569,0.0592,0.0659,0.0709,0.0732,0.0773,0.0772,0.0791,0.0679,0.0591,0.0312,0.0108,-0.0163,-0.0206,-0.029,-0.0296,-0.0272,-0.0294,-0.0286,-0.0279,-0.0356,-0.0356,-0.0356,-0.0356,0,0.0456,0.0484,0.053,0.0619,0.0684,0.0763,0.0834,0.0873,0.0901,0.0902,0.0867,0.072,0.056,0.0324,0.0112,-0.0085,-0.0237,-0.0301,-0.03,-0.0306,-0.0279,-0.0298,-0.029,-0.036,-0.0359,-0.0359,-0.0359,0,0.0482,0.0523,0.0587,0.0667,0.0756,0.0837,0.0872,0.0921,0.096,0.0955,0.0939,0.0761,0.0657,0.0364,0.0169,-0.0027,-0.0084,-0.0151,-0.0159,-0.0158,-0.0084,-0.002,-0.0047,0,0,0,0,0,0.0504,0.0551,0.0629,0.0716,0.0808,0.086,0.0944,0.0973,0.1002,0.0992,0.097,0.0819,0.053,0.0405,0.0209,0.013,-0.0132,-0.0109,-0.0217,-0.0376,-0.0373,-0.0321,0,0,0,0,0,0,0.0518,0.059,0.0628,0.0744,0.0812,0.0915,0.0972,0.0991,0.0986,0.0983,0.0838,0.0767,0.0488,0.0648,0.0206,0.0145,0.0048,-0.0242,-0.0247,-0.0378,-0.0375,-0.0372,-0.0317,0,0,0,0,0]}]]